Peru, IN

10:20 PM EDT on September 25, 2017 (GMT -0400)
Grissom Air Reserve Base

Weather History for KGUS - July, 2013

Change the Weather History Date:

Monday, July 29, 2013

  Actual Average Record
Temperature  
Mean Temperature 61 °F -  
Max Temperature 73 °F 81 °F 95 °F (1999)
Min Temperature 49 °F 64 °F 49 °F (2013)
Degree Days  
Heating Degree Days 4    
Growing Degree Days 11 (Base 50)    
Moisture  
Dew Point 53 °F    
Average Humidity 74    
Maximum Humidity 95    
Minimum Humidity 54    
Precipitation  
Precipitation 0.00 in - - ()
Sea Level Pressure  
Sea Level Pressure 30.12 in    
Wind  
Wind Speed 5 mph (WSW)    
Max Wind Speed 15 mph    
Max Gust Speed 16 mph    
Visibility 10 miles    
Events      
Averages and records for this station are not official NWS values.
T = Trace of Precipitation, MM = Missing Value Source: NWS Daily Summary

Daily Weather History Graph

Daily Weather History Graph

Search for Another Location

Airport or City:

Trip Planner

Search our weather history database for the weather conditions in past years. The results will help you decide how hot, cold, wet, or windy it might be!

Date:

Astronomy

Jul. 29, 2013 Rise Set
Actual Time 6:38 AM EDT 9:02 PM EDT
Civil Twilight 6:07 AM EDT 9:33 PM EDT
Nautical Twilight 5:29 AM EDT 10:11 PM EDT
Astronomical Twilight 4:46 AM EDT 10:54 PM EDT
Moon 12:22 AM EDT (7/29) 2:22 PM EDT (7/29)
Length of Visible Light 15h 25m
Length of Day
14h 23m
Waning Gibbous, 51% of the Moon is Illuminated
Jul 29
Waning Gibbous
Jul 29
Last Quarter
Aug 6
New
Aug 14
First Quarter
Aug 20
Full

Hourly Weather History & Observations

Time (EDT) Temp. Dew Point Humidity Pressure Visibility Wind Dir Wind Speed Gust Speed Precip Events Conditions
12:58 AM 53.8 °F 50.0 °F 87% 30.05 in 10.0 mi SSW 2.3 mph - N/A   Clear
1:58 AM 53.8 °F 49.8 °F 86% 30.05 in 10.0 mi SSW 1.2 mph - N/A   Clear
2:58 AM 51.8 °F 49.6 °F 92% 30.06 in 10.0 mi SW 2.3 mph - N/A   Clear
3:58 AM 52.3 °F 49.5 °F 90% 30.07 in 10.0 mi SSW 4.6 mph - N/A   Clear
4:58 AM 50.0 °F 48.6 °F 95% 30.08 in 10.0 mi SW 3.5 mph - N/A   Clear
5:58 AM 49.6 °F 48.2 °F 95% 30.09 in 10.0 mi SSW 2.3 mph - N/A   Clear
6:58 AM 49.8 °F 48.6 °F 95% 30.10 in 10.0 mi SW 5.8 mph - N/A   Clear
7:58 AM 55.6 °F 52.7 °F 90% 30.11 in 10.0 mi West 6.9 mph - N/A   Clear
8:59 AM 60.8 °F 54.3 °F 79% 30.13 in 10.0 mi West 8.1 mph - N/A   Clear
9:59 AM 66.2 °F 55.4 °F 68% 30.14 in 10.0 mi West 8.1 mph - N/A   Clear
10:32 AM 66.2 °F 55.4 °F 68% 30.13 in 10.0 mi WNW 9.2 mph - N/A   Clear
10:58 AM 68.2 °F 55.0 °F 63% 30.15 in 10.0 mi West 10.4 mph 16.1 mph N/A   Clear
11:58 AM 70.7 °F 54.3 °F 56% 30.16 in 10.0 mi WNW 15.0 mph - N/A   Scattered Clouds
12:58 PM 71.6 °F 55.4 °F 57% 30.16 in 10.0 mi West 10.4 mph - N/A   Scattered Clouds
1:58 PM 73.0 °F 55.6 °F 54% 30.16 in 10.0 mi West 10.4 mph - N/A   Scattered Clouds
2:58 PM 73.0 °F 56.5 °F 56% 30.16 in 10.0 mi WNW 8.1 mph - N/A   Mostly Cloudy
3:59 PM 73.9 °F 56.5 °F 54% 30.16 in 10.0 mi NW 8.1 mph - N/A   Mostly Cloudy
4:58 PM 73.8 °F 56.8 °F 55% 30.15 in 10.0 mi WNW 4.6 mph - N/A   Mostly Cloudy
7:58 PM 72.1 °F 57.7 °F 60% 30.17 in 10.0 mi WSW 6.9 mph - N/A   Overcast
11:58 PM 60.8 °F 57.6 °F 89% 30.19 in 10.0 mi SSW 2.3 mph - N/A   Clear